Regional Weather Roundup
Issued by NWS Midland/Odessa, TX

Skip options and go directly to product.
Home | Oldest Version | Next Version | Current Version | All | Text Only | Save Text | Print | Product List | Glossary On

Skip product version selection by date and time.   
940
ASUS44 KMAF 120601
RWRMAF
MIDLAND AREA WEATHER ROUNDUP
NATIONAL WEATHER SERVICE MIDLAND TX
1200 AM CST FRI FEB 12 2016

...IN SOUTHWEST TEXAS AND SOUTHEAST NEW MEXICO...

CITY           SKY/WX    TMP DP  RH WIND       PRES   REMARKS
ALPINE         CLOUDY    40  20  46 SW7       30.33R WCI  35
ANDREWS        FAIR      44  28  53 CALM      30.21R
ARTESIA        CLOUDY    48  16  27 W13       30.21R
BIG SPRING     CLOUDY    41  24  51 CALM      30.21S
CARLSBAD       CLOUDY    44  23  43 VRB5      30.19R
DRYDEN           N/A     59  19  21 N10       30.15S
FORT STOCKTON  CLEAR     50  25  37 SW14      30.20S
GUAD PASS      CLOUDY    54  10  17 SW15      30.30S
HOBBS          CLOUDY    37  23  56 CALM      30.22S
MARFA          CLEAR     31  14  49 MISG      30.30S
MIDLAND AIRPK  CLOUDY    48  28  46 CALM      30.20S
MIDLAND INTL   CLOUDY    40  27  59 N5        30.19S WCI  37
ODESSA         CLOUDY    44  27  51 CALM      30.20S
PECOS          CLOUDY    42  23  47 SW5       30.21R WCI  39
PRESIDIO       FAIR      55  16  21 MISG      30.21R
SEMINOLE       CLOUDY    40  27  60 CALM      30.22R
SNYDER           N/A     47  30  51 NE7       30.19S
WINK           CLOUDY    39  24  55 N7        30.18S WCI  34
$$
...OTHER STATIONS IN TEXAS...

CITY           SKY/WX    TMP DP  RH WIND       PRES   REMARKS
ABILENE        CLEAR     43  32  65 S3        30.17S
AMARILLO       CLOUDY    40  24  53 S10       30.20R WCI  33
AUSTIN         PTCLDY    49  44  83 CALM      30.14S
BROWNSVILLE    CLEAR     58  57  97 S7        30.19F
CORPUS CHRISTI PTCLDY    56  54  93 SE6       30.18S
DALLAS FTW     PTCLDY    52  35  52 N8        30.12R
DEL RIO        CLEAR     55  29  36 NE3       30.13S
EL PASO        PTCLDY    49  19  30 SE3       30.23S
HOUSTON INT    CLEAR     61  57  87 S6        30.17S
LUBBOCK        CLOUDY    41  25  53 CALM      30.20R
SAN ANGELO     PTCLDY    46  25  43 SW6       30.17R
SAN ANTONIO    CLEAR     58  48  69 CALM      30.16S
WACO           CLEAR     51  37  58 S7        30.11R
WICHITA FALLS  NOT AVBL
$$
...OTHER LOCATIONS IN NEW MEXICO...

CITY           SKY/WX    TMP DP  RH WIND       PRES   REMARKS
ALAMAGORDO     CLOUDY    45   9  23 S7        30.26R
ALBUQUERQUE    CLOUDY    49  18  29 N8        30.34R
CANNON AFB     CLOUDY    45  17  32 W3        30.20F
CLOVIS         CLOUDY    43  19  39 SW10      30.22S WCI  37
HOLLOMAN AFB   CLEAR     43   9  24 SE5       30.24S
ROSWELL        CLOUDY    43  19  38 W8        30.21R WCI  38
RUIDOSO          N/A     46   5  18 NW7       30.35S
SANTA FE       CLOUDY    37  19  48 N12       30.33S WCI  29
TRUTH OR CONSE CLEAR     46  11  24 NW6       30.29R
TUCUMCARI      CLOUDY    38  16  40 CALM      30.17S
$$

USA.gov is the U.S. government's official web portal to all federal, state and local government web resources and services.